Torna al catalogo

TIANQI 39

AttivoComunicazioniLEO
NORAD 67478·PAYLOAD·🇨🇳 China

Lanciato Jan 15, 2026 da Yellow Sea Launch Area

Loading…

Prossimi Passaggi (prossime 24 ore)

TLE

AggiornatoSource: Space-Track

Epoca: Sep 14, 2026, 19:45 UTC

1 67478U 26010C   26257.82344245 -.00000008  00000-0  82989-4 0  9994
2 67478  44.9805  38.8111 0012974  55.7721 304.4339 13.99235633 34003

Traccia TIANQI 39 in tempo reale con AllMySat

Download on the App Store